Location: Drignac
(45.1667°N, 2.0333°E)
Time: 00:32:56
(UTC+00:00)

Cosmos 1892 Rocket - Pass Details

Date: 29 March 2020
Orbit: 605 x 634 km, 82.5° (Epoch: 30 May)

Event Time Altitude Azimuth Distance (km) Brightness Sun altitude
Rises 18:44:55 0° 354° (N) 2,935 7.3 -5.8°
Reaches altitude 10° 18:47:12 10° 358° (N) 2,026 6.4 -6.2°
Maximum altitude 18:51:39 62° 79° (E) 719 3.6 -7.0°
Drops below altitude 10° 18:56:05 10° 160° (SSE) 2,014 5.9 -7.7°
Sets 18:58:20 0° 164° (SSE) 2,917 6.7 -8.1°
